POPACS 3

Last updated on Wed Mar 11 2026 00:03:58 GMT+0000 (Coordinated Universal Time)

1 39270U 13055F 26069.43707703 .00017442 00000+0 42059-3 0 9999 2 39270 81.0052 336.1112 0560066 10.4525 350.7750 14.53998596624194
UTC large
Height (km)
Speed (km/s)
/
Latitude / Longitude
Inclination (degrees)
Orbital Period (minutes)
Azimuth
Elevation
Range (km)
Doppler Factor

Next 0 passes for location: London (51.5072 / 0.1276)

Sorry there are no passes over London.